Location: Berlise
(49.6641°N, 4.1077°E)
Time: 23:30:17
(UTC+00:00)

SMAP - Pass Details

Date: 27 January 2021
Orbit: 681 x 683 km, 98.1° (Epoch: 01 March)

Event Time Altitude Azimuth Distance (km) Brightness Sun altitude
Rises 06:29:12 0° 11° (NNE) 3,058 6.4 -8.8°
Reaches altitude 10° 06:31:27 10° 9° (N) 2,138 5.5 -8.4°
Maximum altitude 06:36:05 67° 288° (WNW) 744 3.0 -7.7°
Drops below altitude 10° 06:40:41 10° 206° (SSW) 2,121 5.5 -7.0°
Sets 06:42:55 0° 204° (SSW) 3,032 6.4 -6.7°
